sat.trackr.live / text

‹ back to catalog

STARLINK-35734

NORAD 66225 · 2025-244V

PAYLOAD ACTIVE UNKNOWN

§ Identity

Operator
Country
US
Launch date
2025-10-28
Launch site
AFWTR
Launch vehicle
Mass (kg)
RCS (m²)

Purposes: comms

External: N2YO · Heavens-Above · Gunter

§ Orbital elements

Epoch: 2026-09-20T21:44:14.073216Z

Period
93.85 min
Inclination
53.1598°
Eccentricity
0.0001090
Mean motion
15.34407755 rev/d
Perigee alt
461.9 km
Apogee alt
463.4 km
Semi-major
6,840.8 km
B*
3.5458e-4
RAAN
42.0413°
Arg perigee
82.4955°
Mean anomaly
277.6171°
Rev number
5,156

§ Raw data

STARLINK-357341 66225U 25244V   26263.90571844  .00011625  00000+0  35458-3 0  99972 66225  53.1598  42.0413 0001090  82.4955 277.6171 15.34407755 51560

JSON: /api/v1/satellites/66225 · /tle

For live sub-satellite position, see the globe view (requires WebGL).

§ Visibility from observer

Set your observer location to see the next 7 days of passes ≥ 10°. The values pass through the URL so the page stays shareable.

No JS? Fill the form by hand. The geolocation button needs JavaScript.